Time,TemperatureF,DewpointF,PressureIn,WindDirection,WindDirectionDegrees,WindSpeedMPH,WindSpeedGustMPH,Humidity,HourlyPrecipIn,Conditions,Clouds,dailyrainin,SoftwareType,DateUTC
2013-01-20 00:01:00,-3.1,-11.6,30.36,NW,310,5.0,11.0,66,0.00,,CLR,0.00,VWS V14.00,2013-01-20 06:01:00,
2013-01-20 00:06:00,-3.2,-11.7,30.36,NW,313,3.0,11.0,66,0.00,,CLR,0.00,VWS V14.00,2013-01-20 06:06:00,
2013-01-20 00:11:00,-3.1,-11.9,30.36,NW,316,5.0,10.0,65,0.00,,CLR,0.00,VWS V14.00,2013-01-20 06:11:00,
2013-01-20 00:16:00,-3.1,-11.6,30.36,NW,309,10.0,10.0,66,0.00,,CLR,0.00,VWS V14.00,2013-01-20 06:16:00,
2013-01-20 00:21:00,-3.0,-11.5,30.36,NW,312,7.0,10.0,66,0.00,,CLR,0.00,VWS V14.00,2013-01-20 06:21:00,
2013-01-20 00:26:00,-3.0,-11.8,30.36,NW,313,8.0,12.0,65,0.00,,CLR,0.00,VWS V14.00,2013-01-20 06:26:00,
2013-01-20 00:31:00,-3.0,-11.8,30.37,NW,306,10.0,10.0,65,0.00,,CLR,0.00,VWS V14.00,2013-01-20 06:31:00,
2013-01-20 00:36:00,-3.0,-11.8,30.37,WNW,302,3.0,12.0,65,0.00,,CLR,0.00,VWS V14.00,2013-01-20 06:36:00,
2013-01-20 00:41:00,-3.0,-11.8,30.37,NW,306,1.0,9.0,65,0.00,,CLR,0.00,VWS V14.00,2013-01-20 06:41:00,
2013-01-20 00:46:00,-3.1,-11.9,30.38,NW,309,5.0,9.0,65,0.00,,CLR,0.00,VWS V14.00,2013-01-20 06:46:00,
2013-01-20 00:52:00,-3.0,-11.8,30.38,NW,311,8.0,9.0,65,0.00,,CLR,0.00,VWS V14.00,2013-01-20 06:52:00,
2013-01-20 00:57:00,-3.0,-11.8,30.38,NW,312,9.0,10.0,65,0.00,,CLR,0.00,VWS V14.00,2013-01-20 06:57:00,
2013-01-20 01:02:00,-3.0,-11.8,30.37,WNW,302,9.0,13.0,65,0.00,,CLR,0.00,VWS V14.00,2013-01-20 07:02:00,
2013-01-20 01:07:00,-3.1,-11.9,30.38,NW,313,2.0,13.0,65,0.00,,CLR,0.00,VWS V14.00,2013-01-20 07:07:00,
2013-01-20 01:12:00,-3.0,-11.8,30.37,NW,318,0.0,10.0,65,0.00,,CLR,0.00,VWS V14.00,2013-01-20 07:12:00,
2013-01-20 01:17:00,-3.0,-11.8,30.37,NW,315,4.0,10.0,65,0.00,,CLR,0.00,VWS V14.00,2013-01-20 07:17:00,
2013-01-20 01:22:00,-3.0,-11.8,30.37,NW,312,4.0,10.0,65,0.00,,CLR,0.00,VWS V14.00,2013-01-20 07:22:00,
2013-01-20 01:27:00,-3.0,-11.8,30.37,NW,313,0.0,10.0,65,0.00,,CLR,0.00,VWS V14.00,2013-01-20 07:27:00,
2013-01-20 01:32:00,-2.9,-11.7,30.37,NW,311,2.0,12.0,65,0.00,,CLR,0.00,VWS V14.00,2013-01-20 07:32:00,
2013-01-20 01:37:00,-3.0,-12.1,30.36,NW,326,1.0,12.0,64,0.00,,CLR,0.00,VWS V14.00,2013-01-20 07:37:00,
2013-01-20 01:42:00,-3.0,-11.8,30.36,NW,320,3.0,8.0,65,0.00,,CLR,0.00,VWS V14.00,2013-01-20 07:42:00,
2013-01-20 01:47:00,-2.9,-11.7,30.37,NW,320,4.0,9.0,65,0.00,,CLR,0.00,VWS V14.00,2013-01-20 07:47:00,
2013-01-20 01:52:00,-3.0,-11.8,30.37,NW,311,0.0,8.0,65,0.00,,CLR,0.00,VWS V14.00,2013-01-20 07:52:00,
2013-01-20 01:57:00,-3.0,-12.1,30.37,NW,317,5.0,9.0,64,0.00,,CLR,0.00,VWS V14.00,2013-01-20 07:57:00,
2013-01-20 02:02:00,-3.1,-12.2,30.37,NW,322,4.0,13.0,64,0.00,,CLR,0.00,VWS V14.00,2013-01-20 08:02:00,
2013-01-20 02:07:00,-3.1,-12.2,30.37,NW,310,8.0,13.0,64,0.00,,CLR,0.00,VWS V14.00,2013-01-20 08:07:00,
2013-01-20 02:12:00,-3.0,-12.1,30.38,WNW,303,0.0,8.0,64,0.00,,CLR,0.00,VWS V14.00,2013-01-20 08:12:00,
2013-01-20 02:17:00,-3.1,-12.2,30.38,NW,310,0.0,8.0,64,0.00,,CLR,0.00,VWS V14.00,2013-01-20 08:17:00,
2013-01-20 02:22:00,-3.1,-12.2,30.38,NW,309,0.0,0.0,64,0.00,,CLR,0.00,VWS V14.00,2013-01-20 08:22:00,
2013-01-20 02:27:00,-3.3,-12.4,30.38,NW,314,4.0,12.0,64,0.00,,CLR,0.00,VWS V14.00,2013-01-20 08:27:00,
2013-01-20 02:32:00,-3.2,-12.3,30.39,NW,310,0.0,7.0,64,0.00,,CLR,0.00,VWS V14.00,2013-01-20 08:32:00,
2013-01-20 02:37:00,-3.2,-12.3,30.39,NW,310,8.0,10.0,64,0.00,,CLR,0.00,VWS V14.00,2013-01-20 08:37:00,
2013-01-20 02:42:00,-3.1,-12.2,30.39,NW,317,2.0,10.0,64,0.00,,CLR,0.00,VWS V14.00,2013-01-20 08:42:00,
2013-01-20 02:47:00,-3.2,-12.3,30.39,NW,316,3.0,10.0,64,0.00,,CLR,0.00,VWS V14.00,2013-01-20 08:47:00,
2013-01-20 02:52:00,-3.2,-12.6,30.39,NW,313,7.0,10.0,63,0.00,,CLR,0.00,VWS V14.00,2013-01-20 08:52:00,
2013-01-20 02:57:00,-3.2,-12.6,30.39,NW,308,8.0,10.0,63,0.00,,CLR,0.00,VWS V14.00,2013-01-20 08:57:00,
2013-01-20 03:02:00,-3.3,-12.7,30.39,NW,315,8.0,8.0,63,0.00,,CLR,0.00,VWS V14.00,2013-01-20 09:02:00,
2013-01-20 03:07:00,-3.2,-12.6,30.39,NW,312,4.0,10.0,63,0.00,,CLR,0.00,VWS V14.00,2013-01-20 09:07:00,
2013-01-20 03:12:00,-3.2,-12.6,30.39,NW,309,0.0,5.0,63,0.00,,CLR,0.00,VWS V14.00,2013-01-20 09:12:00,
2013-01-20 03:17:00,-3.2,-12.6,30.39,NW,312,6.0,9.0,63,0.00,,CLR,0.00,VWS V14.00,2013-01-20 09:17:00,
2013-01-20 03:22:00,-3.2,-12.6,30.38,NW,308,0.0,9.0,63,0.00,,CLR,0.00,VWS V14.00,2013-01-20 09:22:00,
2013-01-20 03:27:00,-3.2,-12.6,30.38,NW,309,0.0,9.0,63,0.00,,CLR,0.00,VWS V14.00,2013-01-20 09:27:00,
2013-01-20 03:32:00,-3.1,-12.5,30.38,NW,325,0.0,7.0,63,0.00,,CLR,0.00,VWS V14.00,2013-01-20 09:32:00,
2013-01-20 03:37:00,-3.1,-12.2,30.38,NNW,337,3.0,7.0,64,0.00,,CLR,0.00,VWS V14.00,2013-01-20 09:37:00,
2013-01-20 03:42:00,-3.1,-12.5,30.37,NNW,337,3.0,5.0,63,0.00,,CLR,0.00,VWS V14.00,2013-01-20 09:42:00,
2013-01-20 03:47:00,-3.2,-12.3,30.36,NNW,338,0.0,5.0,64,0.00,,CLR,0.00,VWS V14.00,2013-01-20 09:47:00,
2013-01-20 03:52:00,-3.2,-12.6,30.36,NNW,338,0.0,6.0,63,0.00,,CLR,0.00,VWS V14.00,2013-01-20 09:52:00,
2013-01-20 03:57:00,-3.3,-12.7,30.36,NNW,338,0.0,6.0,63,0.00,,CLR,0.00,VWS V14.00,2013-01-20 09:57:00,
2013-01-20 04:02:00,-3.4,-12.8,30.36,NNW,338,0.0,0.0,63,0.00,,CLR,0.00,VWS V14.00,2013-01-20 10:02:00,
2013-01-20 04:07:00,-3.4,-12.8,30.37,NNW,338,0.0,0.0,63,0.00,,CLR,0.00,VWS V14.00,2013-01-20 10:07:00,
2013-01-20 04:12:00,-3.5,-12.6,30.36,NNW,338,0.0,0.0,64,0.00,,CLR,0.00,VWS V14.00,2013-01-20 10:12:00,
2013-01-20 04:17:00,-3.5,-12.9,30.36,NNW,338,0.0,0.0,63,0.00,,CLR,0.00,VWS V14.00,2013-01-20 10:17:00,
2013-01-20 04:22:00,-3.5,-12.9,30.36,NNW,338,0.0,0.0,63,0.00,,CLR,0.00,VWS V14.00,2013-01-20 10:22:00,
2013-01-20 04:27:00,-3.6,-13.0,30.36,NNW,338,0.0,0.0,63,0.00,,CLR,0.00,VWS V14.00,2013-01-20 10:27:00,
2013-01-20 04:32:00,-3.7,-13.1,30.36,NNW,338,0.0,0.0,63,0.00,,CLR,0.00,VWS V14.00,2013-01-20 10:32:00,
2013-01-20 04:37:00,-3.8,-13.2,30.36,NNW,338,0.0,0.0,63,0.00,,CLR,0.00,VWS V14.00,2013-01-20 10:37:00,
2013-01-20 04:42:00,-4.0,-13.4,30.36,NNW,338,0.0,0.0,63,0.00,,CLR,0.00,VWS V14.00,2013-01-20 10:42:00,
2013-01-20 04:47:00,-4.2,-13.6,30.36,NNW,338,0.0,0.0,63,0.00,,CLR,0.00,VWS V14.00,2013-01-20 10:47:00,
2013-01-20 04:52:00,-4.4,-13.8,30.36,NNW,338,0.0,0.0,63,0.00,,CLR,0.00,VWS V14.00,2013-01-20 10:52:00,
2013-01-20 04:57:00,-4.6,-14.0,30.36,NNW,338,0.0,0.0,63,0.00,,CLR,0.00,VWS V14.00,2013-01-20 10:57:00,
2013-01-20 05:02:00,-4.8,-13.9,30.36,NNW,338,0.0,0.0,64,0.00,,CLR,0.00,VWS V14.00,2013-01-20 11:02:00,
2013-01-20 05:07:00,-4.9,-13.9,30.35,NNW,338,0.0,0.0,64,0.00,,CLR,0.00,VWS V14.00,2013-01-20 11:07:00,
2013-01-20 05:12:00,-5.1,-14.1,30.35,NNW,338,0.0,0.0,64,0.00,,CLR,0.00,VWS V14.00,2013-01-20 11:12:00,
2013-01-20 05:17:00,-5.3,-14.3,30.36,NNW,338,0.0,0.0,64,0.00,,CLR,0.00,VWS V14.00,2013-01-20 11:17:00,
2013-01-20 05:22:00,-5.6,-14.6,30.36,NNW,338,0.0,0.0,64,0.00,,CLR,0.00,VWS V14.00,2013-01-20 11:22:00,
2013-01-20 05:27:00,-5.8,-14.5,30.36,NNW,338,0.0,0.0,65,0.00,,CLR,0.00,VWS V14.00,2013-01-20 11:27:00,
2013-01-20 05:33:00,-5.8,-14.5,30.36,NNW,338,0.0,0.0,65,0.00,,CLR,0.00,VWS V14.00,2013-01-20 11:33:00,
2013-01-20 05:38:00,-5.9,-14.6,30.36,NNW,338,0.0,0.0,65,0.00,,CLR,0.00,VWS V14.00,2013-01-20 11:38:00,
2013-01-20 05:43:00,-5.9,-14.3,30.36,NNW,338,0.0,0.0,66,0.00,,CLR,0.00,VWS V14.00,2013-01-20 11:43:00,
2013-01-20 05:48:00,-5.9,-14.3,30.36,NNW,338,0.0,0.0,66,0.00,,CLR,0.00,VWS V14.00,2013-01-20 11:48:00,
2013-01-20 05:53:00,-6.0,-14.4,30.36,NNW,338,0.0,0.0,66,0.00,,CLR,0.00,VWS V14.00,2013-01-20 11:53:00,
2013-01-20 05:58:00,-6.1,-14.5,30.36,NNW,338,0.0,0.0,66,0.00,,CLR,0.00,VWS V14.00,2013-01-20 11:58:00,
2013-01-20 06:03:00,-6.1,-14.5,30.36,NNW,338,0.0,0.0,66,0.00,,CLR,0.00,VWS V14.00,2013-01-20 12:03:00,
2013-01-20 06:08:00,-6.3,-14.4,30.36,NNW,338,0.0,0.0,67,0.00,,CLR,0.00,VWS V14.00,2013-01-20 12:08:00,
2013-01-20 06:13:00,-6.3,-14.4,30.35,NNW,338,0.0,0.0,67,0.00,,CLR,0.00,VWS V14.00,2013-01-20 12:13:00,
2013-01-20 06:18:00,-6.5,-14.6,30.35,NNW,338,0.0,0.0,67,0.00,,CLR,0.00,VWS V14.00,2013-01-20 12:18:00,
2013-01-20 06:23:00,-6.6,-14.7,30.36,NNW,338,0.0,0.0,67,0.00,,CLR,0.00,VWS V14.00,2013-01-20 12:23:00,
2013-01-20 06:28:00,-6.6,-14.7,30.36,NNW,338,0.0,0.0,67,0.00,,CLR,0.00,VWS V14.00,2013-01-20 12:28:00,
2013-01-20 06:33:00,-6.7,-14.8,30.37,NNW,338,0.0,0.0,67,0.00,,CLR,0.00,VWS V14.00,2013-01-20 12:33:00,
2013-01-20 06:38:00,-6.7,-14.8,30.37,NNW,338,0.0,0.0,67,0.00,,CLR,0.00,VWS V14.00,2013-01-20 12:38:00,
2013-01-20 06:43:00,-6.7,-14.5,30.37,NNW,338,0.0,0.0,68,0.00,,CLR,0.00,VWS V14.00,2013-01-20 12:43:00,
2013-01-20 06:48:00,-6.7,-14.5,30.37,NNW,338,0.0,0.0,68,0.00,,CLR,0.00,VWS V14.00,2013-01-20 12:48:00,
2013-01-20 06:53:00,-6.6,-14.4,30.38,NNW,338,0.0,0.0,68,0.00,,CLR,0.00,VWS V14.00,2013-01-20 12:53:00,
2013-01-20 06:58:00,-6.5,-14.0,30.37,NNW,338,0.0,0.0,69,0.00,,CLR,0.00,VWS V14.00,2013-01-20 12:58:00,
2013-01-20 07:03:00,-6.3,-13.8,30.38,NNW,338,0.0,0.0,69,0.00,,SCT110,0.00,VWS V14.00,2013-01-20 13:03:00,
2013-01-20 07:08:00,-6.2,-13.7,30.38,NNW,338,0.0,0.0,69,0.00,,SCT110,0.00,VWS V14.00,2013-01-20 13:08:00,
2013-01-20 07:13:00,-6.0,-13.5,30.37,NNW,338,0.0,0.0,69,0.00,,SCT110,0.00,VWS V14.00,2013-01-20 13:13:00,
2013-01-20 07:18:00,-5.8,-13.3,30.38,NNW,338,0.0,0.0,69,0.00,,SCT110,0.00,VWS V14.00,2013-01-20 13:18:00,
2013-01-20 07:23:00,-5.6,-12.8,30.38,NNW,338,0.0,0.0,70,0.00,,SCT110,0.00,VWS V14.00,2013-01-20 13:23:00,
2013-01-20 07:28:00,-5.5,-12.7,30.38,NNW,338,0.0,0.0,70,0.00,,SCT110,0.00,VWS V14.00,2013-01-20 13:28:00,
2013-01-20 07:33:00,-5.1,-12.4,30.38,NNW,338,0.0,0.0,70,0.00,,SCT110,0.00,VWS V14.00,2013-01-20 13:33:00,
2013-01-20 07:38:00,-4.7,-12.0,30.38,NNW,338,0.0,0.0,70,0.00,,SCT110,0.00,VWS V14.00,2013-01-20 13:38:00,
2013-01-20 07:43:00,-4.2,-11.5,30.37,NNW,338,0.0,0.0,70,0.00,,SCT110,0.00,VWS V14.00,2013-01-20 13:43:00,
2013-01-20 07:48:00,-4.0,-11.3,30.38,NNW,338,0.0,0.0,70,0.00,,SCT110,0.00,VWS V14.00,2013-01-20 13:48:00,
2013-01-20 07:53:00,-3.5,-10.8,30.38,NNW,338,0.0,0.0,70,0.00,,SCT110,0.00,VWS V14.00,2013-01-20 13:53:00,
2013-01-20 07:58:00,-3.2,-10.5,30.37,NNW,338,0.0,0.0,70,0.00,,SCT110,0.00,VWS V14.00,2013-01-20 13:58:00,
2013-01-20 08:03:00,-2.9,-10.2,30.37,NW,320,0.0,1.0,70,0.00,,OVC048,0.00,VWS V14.00,2013-01-20 14:03:00,
2013-01-20 08:08:00,-2.6,-10.2,30.37,NW,319,0.0,1.0,69,0.00,,OVC048,0.00,VWS V14.00,2013-01-20 14:08:00,
2013-01-20 08:13:00,-2.4,-10.1,30.37,WNW,300,4.0,4.0,69,0.00,,OVC048,0.00,VWS V14.00,2013-01-20 14:13:00,
2013-01-20 08:18:00,-2.2,-9.9,30.37,West,260,2.0,9.0,69,0.00,,OVC048,0.00,VWS V14.00,2013-01-20 14:18:00,
2013-01-20 08:23:00,-2.1,-9.8,30.37,West,279,3.0,6.0,69,0.00,,OVC048,0.00,VWS V14.00,2013-01-20 14:23:00,
2013-01-20 08:28:00,-1.9,-9.6,30.38,West,281,0.0,8.0,69,0.00,,OVC048,0.00,VWS V14.00,2013-01-20 14:28:00,
2013-01-20 08:33:00,-1.8,-9.5,30.38,West,268,4.0,8.0,69,0.00,,,0.00,VWS V14.00,2013-01-20 14:33:00,
2013-01-20 08:38:00,-1.7,-9.4,30.38,West,280,3.0,9.0,69,0.00,,,0.00,VWS V14.00,2013-01-20 14:38:00,
2013-01-20 08:43:00,-1.6,-9.3,30.38,WNW,287,3.0,7.0,69,0.00,,,0.00,VWS V14.00,2013-01-20 14:43:00,
2013-01-20 08:48:00,-1.5,-9.2,30.38,West,278,5.0,8.0,69,0.00,,,0.00,VWS V14.00,2013-01-20 14:48:00,
2013-01-20 08:53:00,-1.3,-9.0,30.38,WNW,284,5.0,9.0,69,0.00,,,0.00,VWS V14.00,2013-01-20 14:53:00,
2013-01-20 08:58:00,-1.2,-8.9,30.38,West,273,3.0,9.0,69,0.00,,,0.00,VWS V14.00,2013-01-20 14:58:00,
2013-01-20 09:03:00,-1.1,-8.8,30.38,West,269,4.0,7.0,69,0.00,,OVC100,0.00,VWS V14.00,2013-01-20 15:03:00,
2013-01-20 09:08:00,-0.8,-8.5,30.38,West,279,6.0,8.0,69,0.00,,OVC100,0.00,VWS V14.00,2013-01-20 15:08:00,
2013-01-20 09:13:00,-0.6,-8.3,30.38,West,280,2.0,8.0,69,0.00,,OVC100,0.00,VWS V14.00,2013-01-20 15:13:00,
2013-01-20 09:18:00,-0.4,-8.1,30.39,West,280,0.0,8.0,69,0.00,,OVC100,0.00,VWS V14.00,2013-01-20 15:18:00,
2013-01-20 09:23:00,-0.1,-7.8,30.38,WNW,283,4.0,7.0,69,0.00,,OVC100,0.00,VWS V14.00,2013-01-20 15:23:00,
2013-01-20 09:28:00,0.1,-7.6,30.39,West,280,5.0,7.0,69,0.00,,OVC100,0.00,VWS V14.00,2013-01-20 15:28:00,
2013-01-20 09:34:00,0.3,-7.4,30.38,WNW,282,7.0,10.0,69,0.00,,OVC100,0.00,VWS V14.00,2013-01-20 15:34:00,
2013-01-20 09:39:00,0.6,-7.2,30.39,West,280,7.0,10.0,69,0.00,,OVC100,0.00,VWS V14.00,2013-01-20 15:39:00,
2013-01-20 09:44:00,0.9,-6.9,30.39,West,280,5.0,11.0,69,0.00,,OVC100,0.00,VWS V14.00,2013-01-20 15:44:00,
2013-01-20 09:49:00,1.2,-6.6,30.38,West,265,13.0,13.0,69,0.00,,OVC100,0.00,VWS V14.00,2013-01-20 15:49:00,
2013-01-20 09:54:00,1.5,-6.3,30.39,WNW,290,11.0,12.0,69,0.00,,OVC100,0.00,VWS V14.00,2013-01-20 15:54:00,
2013-01-20 09:59:00,1.7,-6.1,30.39,NW,305,10.0,17.0,69,0.00,,OVC100,0.00,VWS V14.00,2013-01-20 15:59:00,
2013-01-20 10:04:00,1.8,-6.0,30.39,WNW,288,4.0,11.0,69,0.00,,OVC055,0.00,VWS V14.00,2013-01-20 16:04:00,
2013-01-20 10:09:00,2.1,-6.0,30.38,WNW,285,7.0,18.0,68,0.00,,OVC055,0.00,VWS V14.00,2013-01-20 16:09:00,
2013-01-20 10:14:00,2.2,-6.2,30.38,WNW,286,7.0,14.0,67,0.00,,OVC055,0.00,VWS V14.00,2013-01-20 16:14:00,
2013-01-20 10:19:00,2.2,-6.2,30.38,NW,312,9.0,16.0,67,0.00,,OVC055,0.00,VWS V14.00,2013-01-20 16:19:00,
2013-01-20 10:24:00,2.2,-6.5,30.39,West,279,2.0,14.0,66,0.00,,OVC055,0.00,VWS V14.00,2013-01-20 16:24:00,
2013-01-20 10:29:00,2.3,-6.4,30.39,WNW,303,5.0,18.0,66,0.00,,OVC055,0.00,VWS V14.00,2013-01-20 16:29:00,
2013-01-20 10:34:00,2.3,-6.4,30.39,WNW,303,6.0,19.0,66,0.00,,OVC055,0.00,VWS V14.00,2013-01-20 16:34:00,
2013-01-20 10:39:00,2.3,-6.4,30.39,WNW,295,6.0,19.0,66,0.00,,OVC055,0.00,VWS V14.00,2013-01-20 16:39:00,
2013-01-20 10:44:00,2.5,-6.2,30.39,NW,322,7.0,15.0,66,0.00,,OVC055,0.00,VWS V14.00,2013-01-20 16:44:00,
2013-01-20 10:49:00,2.3,-6.8,30.39,West,278,12.0,18.0,65,0.00,,OVC055,0.00,VWS V14.00,2013-01-20 16:49:00,
2013-01-20 10:54:00,2.3,-6.8,30.39,WNW,295,12.0,17.0,65,0.00,,OVC055,0.00,VWS V14.00,2013-01-20 16:54:00,
2013-01-20 10:59:00,2.8,-6.3,30.39,WNW,302,9.0,17.0,65,0.00,,OVC055,0.00,VWS V14.00,2013-01-20 16:59:00,
2013-01-20 11:04:00,3.3,-6.1,30.39,WNW,302,5.0,17.0,64,0.00,,BKN060,0.00,VWS V14.00,2013-01-20 17:04:00,
2013-01-20 11:09:00,3.5,-6.6,30.39,NW,309,12.0,19.0,62,0.00,,BKN060,0.00,VWS V14.00,2013-01-20 17:09:00,
2013-01-20 11:14:00,3.6,-6.5,30.39,NW,318,15.0,20.0,62,0.00,,BKN060,0.00,VWS V14.00,2013-01-20 17:14:00,
2013-01-20 11:19:00,3.4,-7.0,30.39,NNW,335,8.0,20.0,61,0.00,,BKN060,0.00,VWS V14.00,2013-01-20 17:19:00,
2013-01-20 11:24:00,3.3,-7.4,30.39,NW,315,12.0,19.0,60,0.00,,BKN060,0.00,VWS V14.00,2013-01-20 17:24:00,
2013-01-20 11:29:00,3.2,-7.5,30.39,North,358,6.0,19.0,60,0.00,,BKN060,0.00,VWS V14.00,2013-01-20 17:29:00,
2013-01-20 11:34:00,3.4,-7.7,30.40,NNW,327,12.0,19.0,59,0.00,,BKN060,0.00,VWS V14.00,2013-01-20 17:34:00,
2013-01-20 11:39:00,3.2,-7.9,30.40,NW,308,16.0,21.0,59,0.00,,BKN060,0.00,VWS V14.00,2013-01-20 17:39:00,
2013-01-20 11:44:00,3.1,-8.0,30.40,NW,316,10.0,22.0,59,0.00,,BKN060,0.00,VWS V14.00,2013-01-20 17:44:00,
2013-01-20 11:49:00,3.0,-8.1,30.39,WNW,300,10.0,22.0,59,0.00,,BKN060,0.00,VWS V14.00,2013-01-20 17:49:00,
2013-01-20 11:54:00,2.9,-7.8,30.40,NW,309,9.0,20.0,60,0.00,,BKN060,0.00,VWS V14.00,2013-01-20 17:54:00,
2013-01-20 11:59:00,3.0,-8.1,30.40,NW,309,13.0,20.0,59,0.00,,BKN060,0.00,VWS V14.00,2013-01-20 17:59:00,
2013-01-20 12:04:00,2.8,-8.3,30.39,NW,316,16.0,20.0,59,0.00,,BKN018,0.00,VWS V14.00,2013-01-20 18:04:00,
2013-01-20 12:09:00,3.0,-8.1,30.39,NW,309,9.0,20.0,59,0.00,,BKN018,0.00,VWS V14.00,2013-01-20 18:09:00,
2013-01-20 12:14:00,2.8,-8.6,30.39,NW,315,12.0,17.0,58,0.00,,BKN018,0.00,VWS V14.00,2013-01-20 18:14:00,
2013-01-20 12:19:00,2.6,-8.4,30.39,NW,320,13.0,20.0,59,0.00,,BKN018,0.00,VWS V14.00,2013-01-20 18:19:00,
2013-01-20 12:24:00,2.5,-8.2,30.39,NW,319,3.0,21.0,60,0.00,,BKN018,0.00,VWS V14.00,2013-01-20 18:24:00,
2013-01-20 12:29:00,2.3,-8.4,30.39,NW,326,4.0,21.0,60,0.00,,BKN018,0.00,VWS V14.00,2013-01-20 18:29:00,
2013-01-20 12:34:00,1.8,-8.5,30.39,NW,314,8.0,19.0,61,0.00,,,0.00,VWS V14.00,2013-01-20 18:34:00,
2013-01-20 12:39:00,1.7,-8.3,30.40,NW,304,8.0,19.0,62,0.00,,,0.00,VWS V14.00,2013-01-20 18:39:00,
2013-01-20 12:44:00,2.1,-7.9,30.40,NW,308,11.0,22.0,62,0.00,,,0.00,VWS V14.00,2013-01-20 18:44:00,
2013-01-20 12:49:00,2.1,-8.2,30.39,WNW,293,8.0,22.0,61,0.00,,,0.00,VWS V14.00,2013-01-20 18:49:00,
2013-01-20 12:54:00,2.1,-8.9,30.39,NW,308,7.0,22.0,59,0.00,,,0.00,VWS V14.00,2013-01-20 18:54:00,
2013-01-20 12:59:00,1.6,-9.4,30.39,WNW,287,7.0,22.0,59,0.00,,,0.00,VWS V14.00,2013-01-20 18:59:00,
2013-01-20 13:04:00,1.2,-9.4,30.40,WNW,301,19.0,22.0,60,0.00,,,0.00,VWS V14.00,2013-01-20 19:04:00,
2013-01-20 13:09:00,0.8,-10.2,30.40,WNW,282,14.0,22.0,59,0.00,,SCT023,0.00,VWS V14.00,2013-01-20 19:09:00,
2013-01-20 13:14:00,0.8,-10.5,30.40,NW,309,16.0,27.0,58,0.00,,SCT023,0.00,VWS V14.00,2013-01-20 19:14:00,
2013-01-20 13:19:00,0.7,-10.2,30.39,WNW,290,14.0,27.0,59,0.00,,SCT023,0.00,VWS V14.00,2013-01-20 19:19:00,
2013-01-20 13:24:00,0.7,-10.2,30.39,NW,312,11.0,19.0,59,0.00,,SCT023,0.00,VWS V14.00,2013-01-20 19:24:00,
2013-01-20 13:29:00,0.7,-10.2,30.39,WNW,293,6.0,19.0,59,0.00,,SCT023,0.00,VWS V14.00,2013-01-20 19:29:00,
2013-01-20 13:34:00,0.7,-10.2,30.39,NW,317,7.0,21.0,59,0.00,,SCT023,0.00,VWS V14.00,2013-01-20 19:34:00,
2013-01-20 13:39:00,0.4,-10.5,30.39,NNW,335,11.0,21.0,59,0.00,,BKN019,0.00,VWS V14.00,2013-01-20 19:39:00,
2013-01-20 13:44:00,0.2,-11.1,30.39,NW,304,10.0,20.0,58,0.00,,BKN019,0.00,VWS V14.00,2013-01-20 19:44:00,
2013-01-20 13:49:00,-0.1,-11.3,30.38,NW,326,10.0,22.0,58,0.00,,BKN019,0.00,VWS V14.00,2013-01-20 19:49:00,
2013-01-20 13:55:00,-0.1,-11.0,30.38,NW,306,8.0,23.0,59,0.00,,BKN019,0.00,VWS V14.00,2013-01-20 19:55:00,
2013-01-20 14:00:00,-0.1,-10.9,30.38,WNW,290,12.0,12.0,59,0.00,,BKN019,0.00,VWS V14.00,2013-01-20 20:00:00,
2013-01-20 14:05:00,-0.1,-10.9,30.38,NW,313,9.0,15.0,59,0.00,,BKN024,0.00,VWS V14.00,2013-01-20 20:05:00,
2013-01-20 14:10:00,-0.1,-11.0,30.38,NW,321,9.0,13.0,59,0.00,,BKN024,0.00,VWS V14.00,2013-01-20 20:10:00,
2013-01-20 14:15:00,-0.1,-11.0,30.37,NW,325,5.0,18.0,59,0.00,,BKN024,0.00,VWS V14.00,2013-01-20 20:15:00,
2013-01-20 14:20:00,0.1,-10.9,30.37,NNW,338,5.0,13.0,59,0.00,,BKN024,0.00,VWS V14.00,2013-01-20 20:20:00,
2013-01-20 14:25:00,0.1,-10.5,30.37,NW,316,13.0,17.0,60,0.00,,BKN024,0.00,VWS V14.00,2013-01-20 20:25:00,
2013-01-20 14:30:00,-0.1,-11.0,30.37,NNW,334,7.0,10.0,59,0.00,,BKN024,0.00,VWS V14.00,2013-01-20 20:30:00,
2013-01-20 14:35:00,-0.2,-11.1,30.37,NW,307,6.0,19.0,59,0.00,,BKN024,0.00,VWS V14.00,2013-01-20 20:35:00,
2013-01-20 14:40:00,-0.1,-11.0,30.38,NW,305,12.0,17.0,59,0.00,,BKN024,0.00,VWS V14.00,2013-01-20 20:40:00,
2013-01-20 14:45:00,-0.2,-11.1,30.37,NW,326,12.0,21.0,59,0.00,,BKN024,0.00,VWS V14.00,2013-01-20 20:45:00,
2013-01-20 14:50:00,-0.2,-11.1,30.38,WNW,296,10.0,18.0,59,0.00,,BKN024,0.00,VWS V14.00,2013-01-20 20:50:00,
2013-01-20 14:55:00,-0.1,-10.6,30.37,NW,304,6.0,21.0,60,0.00,,BKN024,0.00,VWS V14.00,2013-01-20 20:55:00,
2013-01-20 15:00:00,-0.1,-10.7,30.38,WNW,296,5.0,20.0,60,0.00,,BKN024,0.00,VWS V14.00,2013-01-20 21:00:00,
2013-01-20 15:05:00,-0.1,-10.3,30.38,WNW,289,13.0,23.0,61,0.00,,OVC024,0.00,VWS V14.00,2013-01-20 21:05:00,
2013-01-20 15:10:00,-0.2,-10.8,30.38,NW,307,15.0,17.0,60,0.00,,OVC024,0.00,VWS V14.00,2013-01-20 21:10:00,
2013-01-20 15:15:00,-0.7,-11.6,30.38,NW,309,6.0,23.0,59,0.00,,OVC024,0.00,VWS V14.00,2013-01-20 21:15:00,
2013-01-20 15:20:00,-0.8,-11.7,30.38,WNW,303,3.0,7.0,59,0.00,,OVC024,0.00,VWS V14.00,2013-01-20 21:20:00,
2013-01-20 15:25:00,-0.6,-11.1,30.38,NW,313,8.0,15.0,60,0.00,,OVC024,0.00,VWS V14.00,2013-01-20 21:25:00,
2013-01-20 15:30:00,-0.6,-11.5,30.38,WNW,297,8.0,14.0,59,0.00,,OVC024,0.00,VWS V14.00,2013-01-20 21:30:00,
2013-01-20 15:35:00,-0.9,-11.8,30.38,NNW,329,6.0,16.0,59,0.00,,OVC024,0.00,VWS V14.00,2013-01-20 21:35:00,
2013-01-20 15:40:00,-1.1,-12.3,30.38,NW,320,11.0,17.0,58,0.00,,OVC024,0.00,VWS V14.00,2013-01-20 21:40:00,
2013-01-20 15:45:00,-1.2,-12.1,30.38,NW,308,17.0,18.0,59,0.00,,SCT023,0.00,VWS V14.00,2013-01-20 21:45:00,
2013-01-20 15:50:00,-1.3,-12.1,30.38,NW,322,14.0,14.0,59,0.00,,SCT023,0.00,VWS V14.00,2013-01-20 21:50:00,
2013-01-20 15:56:00,-1.4,-11.9,30.38,NW,318,6.0,23.0,60,0.00,,,0.00,VWS V14.00,2013-01-20 21:56:00,
2013-01-20 16:01:00,-1.5,-12.0,30.38,NW,305,6.0,17.0,60,0.00,,,0.00,VWS V14.00,2013-01-20 22:01:00,
2013-01-20 16:06:00,-1.7,-12.2,30.38,NW,315,7.0,17.0,60,0.00,,BKN021,0.00,VWS V14.00,2013-01-20 22:06:00,
2013-01-20 16:11:00,-1.8,-12.6,30.38,WNW,300,4.0,10.0,59,0.00,,BKN021,0.00,VWS V14.00,2013-01-20 22:11:00,
2013-01-20 16:16:00,-2.1,-12.6,30.38,NW,309,7.0,16.0,60,0.00,,BKN021,0.00,VWS V14.00,2013-01-20 22:16:00,
2013-01-20 16:21:00,-2.2,-12.7,30.38,NW,308,14.0,15.0,60,0.00,,BKN021,0.00,VWS V14.00,2013-01-20 22:21:00,
2013-01-20 16:26:00,-2.2,-12.3,30.39,NW,320,5.0,15.0,61,0.00,,BKN021,0.00,VWS V14.00,2013-01-20 22:26:00,
2013-01-20 16:31:00,-2.2,-12.7,30.39,NW,318,8.0,13.0,60,0.00,,BKN021,0.00,VWS V14.00,2013-01-20 22:31:00,
2013-01-20 16:36:00,-2.2,-12.7,30.38,NW,314,4.0,13.0,60,0.00,,BKN021,0.00,VWS V14.00,2013-01-20 22:36:00,
2013-01-20 16:41:00,-2.4,-13.2,30.39,WNW,303,7.0,14.0,59,0.00,,BKN021,0.00,VWS V14.00,2013-01-20 22:41:00,
2013-01-20 16:46:00,-2.6,-13.4,30.38,WNW,296,11.0,21.0,59,0.00,,BKN021,0.00,VWS V14.00,2013-01-20 22:46:00,
2013-01-20 16:51:00,-2.8,-13.9,30.38,NW,306,8.0,16.0,58,0.00,,SCT019,0.00,VWS V14.00,2013-01-20 22:51:00,
2013-01-20 16:56:00,-3.0,-14.1,30.39,NW,315,8.0,16.0,58,0.00,,SCT019,0.00,VWS V14.00,2013-01-20 22:56:00,
2013-01-20 17:01:00,-3.3,-14.4,30.39,NW,311,2.0,10.0,58,0.00,,SCT019,0.00,VWS V14.00,2013-01-20 23:01:00,
2013-01-20 17:06:00,-3.4,-14.1,30.39,WNW,302,4.0,11.0,59,0.00,,CLR,0.00,VWS V14.00,2013-01-20 23:06:00,
2013-01-20 17:11:00,-3.6,-14.3,30.38,NW,317,13.0,13.0,59,0.00,,CLR,0.00,VWS V14.00,2013-01-20 23:11:00,
2013-01-20 17:16:00,-3.8,-14.5,30.38,WNW,295,4.0,13.0,59,0.00,,CLR,0.00,VWS V14.00,2013-01-20 23:16:00,
2013-01-20 17:21:00,-3.8,-14.5,30.39,WNW,288,7.0,13.0,59,0.00,,CLR,0.00,VWS V14.00,2013-01-20 23:21:00,
2013-01-20 17:26:00,-4.0,-14.7,30.39,NW,306,4.0,13.0,59,0.00,,CLR,0.00,VWS V14.00,2013-01-20 23:26:00,
2013-01-20 17:31:00,-4.1,-14.8,30.38,NW,314,0.0,6.0,59,0.00,,CLR,0.00,VWS V14.00,2013-01-20 23:31:00,
2013-01-20 17:37:00,-4.2,-14.9,30.38,NW,315,5.0,14.0,59,0.00,,CLR,0.00,VWS V14.00,2013-01-20 23:37:00,
2013-01-20 17:42:00,-4.3,-14.6,30.38,WNW,296,6.0,7.0,60,0.00,,CLR,0.00,VWS V14.00,2013-01-20 23:42:00,
2013-01-20 17:47:00,-4.4,-14.8,30.38,West,277,10.0,11.0,60,0.00,,BKN024,0.00,VWS V14.00,2013-01-20 23:47:00,
2013-01-20 17:52:00,-4.4,-14.4,30.38,WNW,289,7.0,13.0,61,0.00,,BKN024,0.00,VWS V14.00,2013-01-20 23:52:00,
2013-01-20 17:57:00,-4.4,-14.4,30.38,WNW,298,4.0,13.0,61,0.00,,BKN024,0.00,VWS V14.00,2013-01-20 23:57:00,
2013-01-20 18:02:00,-4.5,-14.5,30.37,West,279,3.0,9.0,61,0.00,,SCT024,0.00,VWS V14.00,2013-01-21 00:02:00,
2013-01-20 18:07:00,-4.6,-14.6,30.38,WNW,300,5.0,14.0,61,0.00,,SCT024,0.00,VWS V14.00,2013-01-21 00:07:00,
2013-01-20 18:12:00,-4.6,-14.6,30.38,WNW,289,14.0,15.0,61,0.00,,SCT024,0.00,VWS V14.00,2013-01-21 00:12:00,
2013-01-20 18:17:00,-4.7,-15.0,30.38,NW,307,8.0,15.0,60,0.00,,SCT024,0.00,VWS V14.00,2013-01-21 00:17:00,
2013-01-20 18:22:00,-4.8,-15.1,30.37,WNW,293,4.0,13.0,60,0.00,,SCT024,0.00,VWS V14.00,2013-01-21 00:22:00,
2013-01-20 18:27:00,-4.8,-15.1,30.37,WNW,294,7.0,14.0,60,0.00,,SCT024,0.00,VWS V14.00,2013-01-21 00:27:00,
2013-01-20 18:32:00,-4.9,-15.2,30.37,WNW,292,5.0,14.0,60,0.00,,SCT024,0.00,VWS V14.00,2013-01-21 00:32:00,
2013-01-20 18:37:00,-5.1,-15.4,30.37,WNW,288,10.0,14.0,60,0.00,,SCT024,0.00,VWS V14.00,2013-01-21 00:37:00,
2013-01-20 18:42:00,-5.1,-15.4,30.36,WNW,282,10.0,12.0,60,0.00,,SCT024,0.00,VWS V14.00,2013-01-21 00:42:00,
2013-01-20 18:47:00,-5.2,-15.5,30.37,WNW,302,3.0,13.0,60,0.00,,SCT024,0.00,VWS V14.00,2013-01-21 00:47:00,
2013-01-20 18:53:00,-5.3,-15.6,30.36,NW,308,14.0,16.0,60,0.00,,SCT024,0.00,VWS V14.00,2013-01-21 00:53:00,
2013-01-20 18:58:00,-5.2,-15.5,30.37,WNW,294,4.0,19.0,60,0.00,,SCT024,0.00,VWS V14.00,2013-01-21 00:58:00,
2013-01-20 19:03:00,-5.4,-15.7,30.37,WNW,302,7.0,20.0,60,0.00,,CLR,0.00,VWS V14.00,2013-01-21 01:03:00,
2013-01-20 19:08:00,-5.3,-15.9,30.36,WNW,300,6.0,20.0,59,0.00,,CLR,0.00,VWS V14.00,2013-01-21 01:08:00,
2013-01-20 19:13:00,-5.5,-16.1,30.37,WNW,294,9.0,20.0,59,0.00,,CLR,0.00,VWS V14.00,2013-01-21 01:13:00,
2013-01-20 19:18:00,-5.6,-16.5,30.36,NW,320,6.0,20.0,58,0.00,,CLR,0.00,VWS V14.00,2013-01-21 01:18:00,
2013-01-20 19:23:00,-5.6,-16.5,30.37,WNW,291,6.0,15.0,58,0.00,,CLR,0.00,VWS V14.00,2013-01-21 01:23:00,
2013-01-20 19:28:00,-5.7,-16.6,30.37,WNW,296,7.0,16.0,58,0.00,,CLR,0.00,VWS V14.00,2013-01-21 01:28:00,
2013-01-20 19:33:00,-5.8,-16.7,30.36,NW,304,3.0,18.0,58,0.00,,CLR,0.00,VWS V14.00,2013-01-21 01:33:00,
2013-01-20 19:38:00,-6.1,-17.0,30.36,NW,312,11.0,20.0,58,0.00,,CLR,0.00,VWS V14.00,2013-01-21 01:38:00,
2013-01-20 19:43:00,-6.2,-17.1,30.37,NW,310,18.0,18.0,58,0.00,,CLR,0.00,VWS V14.00,2013-01-21 01:43:00,
2013-01-20 19:48:00,-6.2,-17.1,30.37,NW,311,10.0,23.0,58,0.00,,CLR,0.00,VWS V14.00,2013-01-21 01:48:00,
2013-01-20 19:53:00,-6.4,-17.6,30.37,NW,313,5.0,18.0,57,0.00,,CLR,0.00,VWS V14.00,2013-01-21 01:53:00,
2013-01-20 19:58:00,-6.5,-17.7,30.37,WNW,300,5.0,20.0,57,0.00,,CLR,0.00,VWS V14.00,2013-01-21 01:58:00,
2013-01-20 20:03:00,-6.6,-18.2,30.36,WNW,296,7.0,19.0,56,0.00,,CLR,0.00,VWS V14.00,2013-01-21 02:03:00,
2013-01-20 20:08:00,-6.8,-18.4,30.36,NW,318,15.0,19.0,56,0.00,,CLR,0.00,VWS V14.00,2013-01-21 02:08:00,
2013-01-20 20:13:00,-6.9,-18.5,30.36,NW,311,5.0,15.0,56,0.00,,CLR,0.00,VWS V14.00,2013-01-21 02:13:00,
2013-01-20 20:18:00,-7.0,-18.2,30.36,NW,307,8.0,19.0,57,0.00,,CLR,0.00,VWS V14.00,2013-01-21 02:18:00,
2013-01-20 20:23:00,-7.2,-18.4,30.36,NW,315,8.0,17.0,57,0.00,,CLR,0.00,VWS V14.00,2013-01-21 02:23:00,
2013-01-20 20:28:00,-7.4,-18.6,30.36,NW,306,8.0,17.0,57,0.00,,CLR,0.00,VWS V14.00,2013-01-21 02:28:00,
2013-01-20 20:33:00,-7.5,-18.7,30.36,NW,320,10.0,18.0,57,0.00,,CLR,0.00,VWS V14.00,2013-01-21 02:33:00,
2013-01-20 20:38:00,-7.7,-19.2,30.37,WNW,303,7.0,19.0,56,0.00,,CLR,0.00,VWS V14.00,2013-01-21 02:38:00,
2013-01-20 20:43:00,-7.8,-19.3,30.36,NW,320,11.0,17.0,56,0.00,,CLR,0.00,VWS V14.00,2013-01-21 02:43:00,
2013-01-20 20:48:00,-8.1,-19.6,30.36,NW,316,12.0,20.0,56,0.00,,CLR,0.00,VWS V14.00,2013-01-21 02:48:00,
2013-01-20 20:53:00,-8.2,-19.3,30.36,NW,310,10.0,11.0,57,0.00,,CLR,0.00,VWS V14.00,2013-01-21 02:53:00,
2013-01-20 20:58:00,-8.3,-19.4,30.36,WNW,290,4.0,18.0,57,0.00,,CLR,0.00,VWS V14.00,2013-01-21 02:58:00,
2013-01-20 21:03:00,-8.5,-19.6,30.37,WNW,301,4.0,20.0,57,0.00,,BKN017,0.00,VWS V14.00,2013-01-21 03:03:00,
2013-01-20 21:08:00,-8.7,-19.8,30.37,WNW,299,6.0,20.0,57,0.00,,FEW017,0.00,VWS V14.00,2013-01-21 03:08:00,
2013-01-20 21:13:00,-8.8,-19.9,30.37,WNW,303,8.0,20.0,57,0.00,,FEW017,0.00,VWS V14.00,2013-01-21 03:13:00,
2013-01-20 21:18:00,-9.1,-20.5,30.37,NW,307,17.0,20.0,56,0.00,,FEW017,0.00,VWS V14.00,2013-01-21 03:18:00,
2013-01-20 21:23:00,-9.1,-20.5,30.37,NW,308,12.0,21.0,56,0.00,,FEW017,0.00,VWS V14.00,2013-01-21 03:23:00,
2013-01-20 21:28:00,-9.2,-21.0,30.37,WNW,290,10.0,21.0,55,0.00,,FEW017,0.00,VWS V14.00,2013-01-21 03:28:00,
2013-01-20 21:33:00,-9.4,-21.5,30.37,NW,324,9.0,17.0,54,0.00,,FEW017,0.00,VWS V14.00,2013-01-21 03:33:00,
2013-01-20 21:38:00,-9.4,-21.2,30.37,NW,310,6.0,18.0,55,0.00,,FEW017,0.00,VWS V14.00,2013-01-21 03:38:00,
2013-01-20 21:43:00,-9.6,-21.7,30.37,NW,308,17.0,21.0,54,0.00,,FEW017,0.00,VWS V14.00,2013-01-21 03:43:00,
2013-01-20 21:48:00,-9.6,-21.7,30.37,NW,314,4.0,21.0,54,0.00,,FEW017,0.00,VWS V14.00,2013-01-21 03:48:00,
2013-01-20 21:53:00,-9.8,-21.9,30.37,NW,308,13.0,20.0,54,0.00,,FEW017,0.00,VWS V14.00,2013-01-21 03:53:00,
2013-01-20 21:58:00,-9.9,-22.3,30.38,NW,320,11.0,20.0,53,0.00,,FEW017,0.00,VWS V14.00,2013-01-21 03:58:00,
2013-01-20 22:03:00,-10.0,-22.1,30.38,NW,317,5.0,18.0,54,0.00,,CLR,0.00,VWS V14.00,2013-01-21 04:03:00,
2013-01-20 22:08:00,-10.1,-22.5,30.38,WNW,290,8.0,18.0,53,0.00,,CLR,0.00,VWS V14.00,2013-01-21 04:08:00,
2013-01-20 22:13:00,-10.2,-22.3,30.38,NW,305,2.0,17.0,54,0.00,,CLR,0.00,VWS V14.00,2013-01-21 04:13:00,
2013-01-20 22:18:00,-10.2,-22.3,30.38,NW,309,7.0,17.0,54,0.00,,CLR,0.00,VWS V14.00,2013-01-21 04:18:00,
2013-01-20 22:23:00,-10.3,-22.4,30.38,NW,316,8.0,14.0,54,0.00,,CLR,0.00,VWS V14.00,2013-01-21 04:23:00,
2013-01-20 22:28:00,-10.4,-22.5,30.38,NW,310,7.0,16.0,54,0.00,,CLR,0.00,VWS V14.00,2013-01-21 04:28:00,
2013-01-20 22:33:00,-10.5,-22.5,30.39,NW,305,6.0,11.0,54,0.00,,CLR,0.00,VWS V14.00,2013-01-21 04:33:00,
2013-01-20 22:38:00,-10.6,-22.6,30.39,WNW,303,2.0,12.0,54,0.00,,CLR,0.00,VWS V14.00,2013-01-21 04:38:00,
2013-01-20 22:43:00,-10.7,-22.4,30.39,NW,304,8.0,13.0,55,0.00,,CLR,0.00,VWS V14.00,2013-01-21 04:43:00,
2013-01-20 22:48:00,-10.9,-22.6,30.39,WNW,289,9.0,13.0,55,0.00,,CLR,0.00,VWS V14.00,2013-01-21 04:48:00,
2013-01-20 22:53:00,-10.8,-22.5,30.39,NW,305,6.0,14.0,55,0.00,,CLR,0.00,VWS V14.00,2013-01-21 04:53:00,
2013-01-20 22:58:00,-11.0,-22.7,30.38,WNW,294,6.0,14.0,55,0.00,,CLR,0.00,VWS V14.00,2013-01-21 04:58:00,
2013-01-20 23:01:00,-11.1,-22.8,30.38,WNW,299,6.0,6.0,55,0.00,,CLR,0.00,VWS V14.00,2013-01-21 05:01:00,
2013-01-20 23:03:00,-11.1,-22.8,30.38,NW,307,9.0,14.0,55,0.00,,CLR,0.00,VWS V14.00,2013-01-21 05:03:00,
2013-01-20 23:08:00,-11.2,-22.9,30.38,NW,309,4.0,14.0,55,0.00,,CLR,0.00,VWS V14.00,2013-01-21 05:08:00,
2013-01-20 23:13:00,-11.2,-22.9,30.38,WNW,303,3.0,9.0,55,0.00,,CLR,0.00,VWS V14.00,2013-01-21 05:13:00,
2013-01-20 23:18:00,-11.4,-23.0,30.39,WNW,303,4.0,10.0,55,0.00,,CLR,0.00,VWS V14.00,2013-01-21 05:18:00,
2013-01-20 23:23:00,-11.5,-23.1,30.38,WNW,301,3.0,13.0,55,0.00,,CLR,0.00,VWS V14.00,2013-01-21 05:23:00,
2013-01-20 23:28:00,-11.6,-22.9,30.38,NW,304,6.0,14.0,56,0.00,,CLR,0.00,VWS V14.00,2013-01-21 05:28:00,
2013-01-20 23:33:00,-11.5,-22.8,30.39,WNW,291,11.0,11.0,56,0.00,,CLR,0.00,VWS V14.00,2013-01-21 05:33:00,
2013-01-20 23:38:00,-11.6,-22.9,30.38,WNW,289,3.0,11.0,56,0.00,,CLR,0.00,VWS V14.00,2013-01-21 05:38:00,
2013-01-20 23:43:00,-11.7,-23.0,30.39,WNW,296,4.0,10.0,56,0.00,,CLR,0.00,VWS V14.00,2013-01-21 05:43:00,
2013-01-20 23:48:00,-11.7,-23.0,30.38,NW,306,5.0,10.0,56,0.00,,CLR,0.00,VWS V14.00,2013-01-21 05:48:00,
2013-01-20 23:53:00,-11.7,-23.0,30.38,WNW,302,4.0,9.0,56,0.00,,CLR,0.00,VWS V14.00,2013-01-21 05:53:00,
2013-01-20 23:58:00,-11.7,-22.6,30.38,WNW,292,4.0,13.0,57,0.00,,CLR,0.00,VWS V14.00,2013-01-21 05:58:00,